[[{"header":{"parameterUnit":"m.s-1","parameterCategory":1,"la1":30.2991,"la2":30.254,"lo1":-89.0895,"lo2":-89.0444,"dy":0.0017,"dx":0.0017,"nx":28,"ny":28,"refTime":"2024-10-07T21:00:00:Z","depth":0,"parameterNumber":2,"parameterNumberName":"U-component_of_WINDS"},"data":[0,0,0,0,0,0,0,0,0,0,0,0,0,0,0,0,0,0,0,0,0,0,0,0,0,0,0,0,0,0,0,0,0,0,0,0,0,0,0,0,0,0,0,0,0,0,0,0,0,0,0,0,0,0,0,0,0,0,-2.5318,-2.5319,0,-2.5408,-2.5409,-2.541,-2.5334,-2.5331,-2.5328,-2.5325,-2.5419,-2.5424,-2.543,0,0,0,0,0,0,0,0,0,0,0,0,0,-2.5084,-2.5088,-2.5318,-2.5319,-2.5321,-2.5408,-2.5409,-2.541,-2.5335,-2.5331,-2.5327,-2.5324,-2.5417,-2.5424,-2.543,0,0,0,0,0,0,0,0,0,0,0,0,0,-2.5181,-2.509,-2.5318,-2.5294,-2.5292,-2.5407,-2.5409,-2.541,-2.5336,-2.5331,-2.5326,-2.5322,-2.5415,-2.5423,-2.5431,-2.5576,0,0,-2.5456,-2.546,0,0,0,0,0,0,0,0,-2.5175,-2.5189,-2.5296,-2.5295,-2.5294,-2.5355,-2.536,-2.5466,-2.5337,-2.5319,-2.5325,-2.532,-2.5402,-2.5411,-2.5438,-2.558,-2.5584,-2.5457,-2.5462,-2.5465,-2.5467,0,0,0,0,0,0,0,-2.5169,-2.5185,-2.5354,-2.5298,-2.5297,-2.5278,-2.5287,-2.538,-2.5386,-2.5321,-2.5315,-2.5327,-2.54,-2.543,-2.544,-2.5586,-2.5457,-2.5464,-2.5469,-2.5472,-2.5852,-2.5856,0,0,0,0,0,0,-2.5164,-2.518,-2.5351,-2.5356,-2.5222,-2.5286,-2.5296,-2.534,-2.5385,-2.5387,-2.5331,-2.5323,-2.5419,-2.543,-2.5443,-2.5616,-2.5465,-2.5473,-2.5477,-2.5846,-2.5853,-2.5858,0,0,0,0,0,0,-2.516,-2.518,-2.5347,-2.5267,-2.5287,-2.5296,-2.5346,-2.5345,-2.5374,-2.5392,-2.5393,-2.536,-2.5415,-2.5431,-2.5543,-2.5618,-2.5476,-2.5484,-2.584,-2.5848,-2.5855,-2.5963,0,0,0,0,0,0,-2.5153,-2.5179,-2.5234,-2.5269,-2.5291,-2.5447,-2.535,-2.535,-2.5388,-2.5379,-2.542,-2.5423,-2.5413,-2.5531,-2.5551,-2.5627,-2.549,-2.5834,-2.5844,-2.5853,-2.5953,-2.5974,-2.5992,0,0,0,0,0,-2.5145,-2.5261,-2.5237,-2.5258,-2.536,-2.5451,-2.5464,-2.545,-2.5395,-2.545,-2.5462,-2.5421,-2.5606,-2.5544,-2.5565,-2.5644,-2.5829,-2.5841,-2.5852,-2.5945,-2.597,-2.5991,0,0,0,0,0,0,-2.5236,-2.5265,-2.5239,-2.537,-2.5408,-2.5438,-2.5508,-2.5477,-2.5533,-2.5522,-2.5502,-2.5512,-2.563,-2.5648,-2.5578,-2.5787,-2.5709,-2.5725,-2.5772,-2.5796,-2.5814,-2.5809,-2.5497,0,0,0,0,0,-2.5271,-2.5342,-2.5364,-2.5477,-2.5498,-2.55,-2.5539,-2.5524,-2.5564,-2.558,-2.5599,-2.564,-2.5707,-2.5752,-2.5814,-2.5954,-2.5963,-2.6019,-2.6038,-2.6054,-2.607,-2.6146,-2.6171,-2.5897,-2.5897,-2.5896,0,0,-2.5345,-2.537,-2.5416,-2.5496,-2.5524,-2.5599,-2.5514,-2.5596,-2.5652,-2.5592,-2.57,-2.5715,-2.5759,-2.5886,-2.5943,-2.5905,-2.6147,-2.6069,-2.6081,-2.6088,-2.616,-2.6186,-2.6209,-2.5905,-2.5903,-2.5902,0,0,-2.5518,-2.5543,-2.5641,-2.567,-2.5714,-2.5714,-2.5737,-2.5772,-2.578,-2.5886,-2.5844,-2.5909,-2.6025,-2.6058,-2.609,-2.6274,-2.6239,-2.6295,-2.6396,-2.647,-2.6492,-2.6511,-2.6579,-2.6603,-2.6309,-2.631,-2.631,0,-2.5605,-2.5715,-2.5695,-2.5781,-2.5817,-2.5766,-2.5865,-2.5894,-2.5957,-2.5984,-2.5939,-2.6083,-2.6109,-2.6243,-2.6288,-2.6315,-2.6342,-2.6291,-2.649,-2.6509,-2.6527,-2.6591,-2.6616,-2.6316,-2.6315,-2.6315,-2.6314,0,-2.582,-2.5897,-2.597,-2.6031,-2.6076,-2.6168,-2.6162,-2.621,-2.6191,-2.6196,-2.6306,-2.6334,-2.6402,-2.6432,-2.6415,-2.6564,-2.6539,-2.6493,-2.6415,-2.656,-2.662,-2.6644,-2.6326,-2.6323,-2.6321,-2.632,0,0,-2.6056,-2.6103,-2.613,-2.6157,-2.62,-2.626,-2.6349,-2.6414,-2.6456,-2.65,-2.6576,-2.6674,-2.6631,-2.6667,-2.6653,-2.6718,-2.6863,-2.6664,-2.6664,-2.6702,-2.7032,-2.7068,-2.7097,-2.6839,-2.6844,-2.6847,-2.7029,0,-2.6232,-2.6387,-2.6371,-2.6519,-2.6591,-2.6542,-2.6619,-2.6655,-2.6661,-2.6723,-2.673,-2.6801,-2.6738,-2.676,-2.6822,-2.6833,-2.693,-2.6819,-2.6911,-2.6914,-2.6904,-2.7128,-2.7166,-2.7336,-2.7052,-2.7055,-2.7058,0,-2.6459,-2.651,-2.6666,-2.6698,-2.6727,-2.6797,-2.6856,-2.6915,-2.6954,-2.6954,-2.6994,-2.6968,-2.7058,-2.6976,-2.71,-2.7025,-2.7061,-2.7072,-2.7078,-2.7089,-2.6997,-2.7146,-2.739,-2.7416,-2.7095,-2.7092,-2.7089,0,-2.6618,-2.6725,-2.6832,-2.6857,-2.6896,-2.6947,-2.6966,-2.7,-2.704,-2.7091,-2.7117,-2.7178,-2.7212,-2.726,-2.7252,-2.7192,-2.7379,-2.7296,-2.7383,-2.7384,-2.7427,-2.7425,-2.7683,-2.7447,-2.7446,-2.7446,-2.7445,0,-2.6818,-2.6916,-2.6904,-2.6971,-2.7078,-2.7058,-2.7165,-2.7178,-2.7208,-2.7276,-2.7237,-2.7302,-2.7285,-2.7349,-2.7342,-2.7447,-2.7463,-2.7466,-2.7464,-2.7471,-2.7471,-2.7497,-2.7486,-2.7453,-2.7451,-2.745,-2.7449,0,-2.7015,-2.7011,-2.7125,-2.7152,-2.7162,-2.724,-2.7264,-2.7326,-2.7328,-2.7415,-2.7434,-2.7439,-2.7512,-2.7507,-2.759,-2.7585,-2.7716,-2.7698,-2.7703,-2.77,-2.7789,-2.7782,-2.8074,-2.8112,-2.7849,-2.7852,-2.7854,0,-2.7145,-2.7218,-2.7253,-2.7296,-2.7318,-2.7387,-2.7427,-2.741,-2.7454,-2.7503,-2.756,-2.7629,-2.7684,-2.7804,-2.7815,-2.7878,-2.7864,-2.7961,-2.7873,-2.7878,-2.7868,-2.7864,-2.7872,-2.798,-2.7983,-2.7985,-2.7987,0,-2.7375,-2.7369,-2.7429,-2.7489,-2.7538,-2.7584,-2.7626,-2.7663,-2.7649,-2.7701,-2.7775,-2.7818,-2.7902,-2.7972,-2.8032,-2.8051,-2.8019,-2.8014,-2.8038,-2.8048,-2.8049,-2.8052,-2.7753,-2.8009,-2.8006,-2.8005,-2.8004,-2.8003,-2.7544,-2.7607,-2.7642,-2.771,-2.7739,-2.7779,-2.7839,-2.7848,-2.791,-2.7977,-2.7962,-2.8046,-2.8082,-2.8159,-2.8185,-2.825,-2.8215,-2.825,-2.8259,-2.8268,-2.8279,-2.8036,-2.8261,-2.826,-2.8259,-2.8259,-2.8258,0,-2.7774,-2.7794,-2.7856,-2.7915,-2.7969,-2.793,-2.7974,-2.8022,-2.8096,-2.8132,-2.8187,-2.8272,-2.834,-2.8355,-2.842,-2.8469,-2.8456,-2.8487,-2.8485,-2.849,-2.8306,-2.828,-2.8497,-2.8497,-2.8497,-2.8497,-2.8497,-2.8497,-2.7901,-2.8006,-2.8004,-2.8124,-2.8142,-2.8224,-2.8252,-2.8289,-2.8318,-2.8415,-2.847,-2.8479,-2.8507,-2.8573,-2.8634,-2.8636,-2.8663,-2.8701,-2.8698,-2.8527,-2.8503,-2.848,-2.8456,-2.8707,-2.8707,-2.8877,-2.8879,-2.888]},{"header":{"parameterUnit":"m.s-1","parameterCategory":1,"la1":30.2991,"la2":30.254,"lo1":-89.0895,"lo2":-89.0444,"dy":0.0017,"dx":0.0017,"nx":28,"ny":28,"refTime":"2024-10-07T21:00:00:Z","depth":0,"parameterNumber":3,"parameterNumberName":"V-component_of_WINDS"},"data":[0,0,0,0,0,0,0,0,0,0,0,0,0,0,0,0,0,0,0,0,0,0,0,0,0,0,0,0,0,0,0,0,0,0,0,0,0,0,0,0,0,0,0,0,0,0,0,0,0,0,0,0,0,0,0,0,0,0,-5.3943,-5.3944,0,-5.3989,-5.3989,-5.399,-5.3906,-5.3903,-5.39,-5.3898,-5.3941,-5.3944,-5.3948,0,0,0,0,0,0,0,0,0,0,0,0,0,-5.378,-5.3784,-5.3943,-5.3944,-5.3944,-5.3989,-5.3989,-5.399,-5.3906,-5.3903,-5.39,-5.3896,-5.3939,-5.3944,-5.3948,0,0,0,0,0,0,0,0,0,0,0,0,0,-5.3841,-5.3785,-5.3943,-5.3908,-5.3906,-5.3988,-5.3989,-5.399,-5.3907,-5.3903,-5.3899,-5.3895,-5.3938,-5.3943,-5.3949,-5.4067,0,0,-5.3966,-5.3968,0,0,0,0,0,0,0,0,-5.3837,-5.3847,-5.3913,-5.3911,-5.3908,-5.3937,-5.3947,-5.4016,-5.3908,-5.3906,-5.3898,-5.3893,-5.3943,-5.3948,-5.3965,-5.4069,-5.4071,-5.3967,-5.397,-5.3972,-5.3974,0,0,0,0,0,0,0,-5.3833,-5.3844,-5.3961,-5.3914,-5.3911,-5.3889,-5.3893,-5.396,-5.3947,-5.3906,-5.39,-5.3907,-5.3941,-5.396,-5.3966,-5.4071,-5.3966,-5.3971,-5.3975,-5.3977,-5.4272,-5.4276,0,0,0,0,0,0,-5.3834,-5.3841,-5.396,-5.3962,-5.3862,-5.3895,-5.39,-5.3932,-5.3946,-5.3945,-5.391,-5.3903,-5.3952,-5.3959,-5.3967,-5.4105,-5.3972,-5.3978,-5.3981,-5.4268,-5.4273,-5.4278,0,0,0,0,0,0,-5.3831,-5.3845,-5.3958,-5.39,-5.3913,-5.3902,-5.394,-5.3935,-5.3955,-5.395,-5.3946,-5.3933,-5.3949,-5.3959,-5.4042,-5.4105,-5.398,-5.3985,-5.4262,-5.4269,-5.4276,-5.4382,0,0,0,0,0,0,-5.3827,-5.3845,-5.3891,-5.3902,-5.3916,-5.4035,-5.3943,-5.3939,-5.3965,-5.3955,-5.397,-5.3968,-5.3947,-5.4035,-5.4048,-5.411,-5.399,-5.4257,-5.4265,-5.4273,-5.4373,-5.4392,-5.4408,0,0,0,0,0,-5.3821,-5.3919,-5.3894,-5.3908,-5.3974,-5.4038,-5.4046,-5.4021,-5.397,-5.4015,-5.4012,-5.3968,-5.4096,-5.4044,-5.4058,-5.4123,-5.4253,-5.4263,-5.4273,-5.4365,-5.4388,-5.4407,0,0,0,0,0,0,-5.3914,-5.3919,-5.3892,-5.3996,-5.4018,-5.4024,-5.408,-5.4046,-5.4081,-5.4071,-5.4036,-5.404,-5.413,-5.4135,-5.4077,-5.4237,-5.4166,-5.4179,-5.4231,-5.4253,-5.427,-5.4266,-5.3994,0,0,0,0,0,-5.3947,-5.4,-5.4001,-5.4093,-5.4106,-5.4092,-5.4119,-5.4097,-5.4117,-5.4125,-5.4128,-5.4148,-5.4193,-5.4223,-5.4264,-5.4373,-5.4374,-5.4425,-5.4442,-5.4457,-5.4468,-5.4525,-5.4547,-5.4311,-5.4311,-5.4311,0,0,-5.4015,-5.4024,-5.406,-5.4112,-5.4126,-5.418,-5.41,-5.4161,-5.42,-5.4134,-5.4213,-5.4216,-5.4236,-5.4333,-5.4376,-5.4339,-5.4534,-5.4469,-5.4481,-5.4485,-5.4537,-5.456,-5.458,-5.4318,-5.4317,-5.4316,0,0,-5.4166,-5.418,-5.4257,-5.4273,-5.4295,-5.4285,-5.4304,-5.4315,-5.4315,-5.4394,-5.4345,-5.4391,-5.4469,-5.4485,-5.4503,-5.4659,-5.4619,-5.4674,-5.4764,-5.4819,-5.4838,-5.4854,-5.4909,-5.4929,-5.4685,-5.4686,-5.4686,0,-5.4248,-5.4329,-5.4301,-5.4365,-5.4389,-5.4333,-5.441,-5.4426,-5.446,-5.4477,-5.4436,-5.4532,-5.4542,-5.4641,-5.4679,-5.4696,-5.4715,-5.4672,-5.4838,-5.4854,-5.4869,-5.492,-5.4941,-5.4692,-5.4691,-5.4691,-5.469,0,-5.4427,-5.4484,-5.4544,-5.4579,-5.4609,-5.468,-5.4661,-5.4694,-5.467,-5.4664,-5.4744,-5.4753,-5.4794,-5.4816,-5.4793,-5.4912,-5.4888,-5.4844,-5.4771,-5.4898,-5.4946,-5.4965,-5.4701,-5.4699,-5.4697,-5.4695,0,0,-5.4639,-5.4657,-5.468,-5.4694,-5.4714,-5.4757,-5.4824,-5.4865,-5.4894,-5.4919,-5.4973,-5.504,-5.4998,-5.5019,-5.4997,-5.5046,-5.5167,-5.4995,-5.4994,-5.5025,-5.5297,-5.533,-5.5353,-5.5141,-5.5145,-5.5148,-5.5295,0,-5.4788,-5.4905,-5.4881,-5.4995,-5.5046,-5.4993,-5.5051,-5.5068,-5.5064,-5.5105,-5.51,-5.5147,-5.5089,-5.5101,-5.5147,-5.5143,-5.5221,-5.5132,-5.519,-5.5192,-5.5186,-5.5378,-5.5414,-5.5552,-5.5313,-5.5316,-5.5319,0,-5.4979,-5.5012,-5.5131,-5.5141,-5.5162,-5.5215,-5.5249,-5.529,-5.5309,-5.5302,-5.5325,-5.5293,-5.5357,-5.5285,-5.5372,-5.5312,-5.5334,-5.5335,-5.534,-5.5344,-5.5263,-5.5386,-5.5595,-5.5616,-5.5348,-5.5346,-5.5344,0,-5.512,-5.5194,-5.5274,-5.5288,-5.5303,-5.5341,-5.5349,-5.5363,-5.5389,-5.5419,-5.5435,-5.5472,-5.5492,-5.5521,-5.5499,-5.5448,-5.5589,-5.5515,-5.5584,-5.5585,-5.5616,-5.5614,-5.5831,-5.5632,-5.5632,-5.5631,-5.5631,0,-5.5288,-5.5363,-5.5337,-5.5387,-5.5468,-5.5439,-5.552,-5.5521,-5.5534,-5.5581,-5.5537,-5.5582,-5.5551,-5.5593,-5.5577,-5.5651,-5.566,-5.5655,-5.565,-5.5659,-5.566,-5.5672,-5.5662,-5.5637,-5.5636,-5.5635,-5.5634,0,-5.546,-5.5446,-5.5529,-5.5536,-5.554,-5.5599,-5.5604,-5.5649,-5.5641,-5.5702,-5.5714,-5.5701,-5.5748,-5.573,-5.578,-5.5768,-5.5863,-5.5845,-5.5857,-5.5852,-5.5922,-5.5915,-5.6153,-5.6182,-5.5966,-5.5969,-5.597,0,-5.5568,-5.5624,-5.5637,-5.5666,-5.5677,-5.5724,-5.575,-5.5723,-5.5752,-5.5776,-5.5818,-5.5862,-5.5895,-5.5972,-5.5967,-5.6004,-5.5986,-5.6067,-5.5992,-5.5998,-5.5986,-5.5983,-5.5987,-5.6082,-5.6085,-5.6087,-5.6088,0,-5.5761,-5.5751,-5.5791,-5.5829,-5.5861,-5.5889,-5.5913,-5.5939,-5.5912,-5.5947,-5.5995,-5.6021,-5.6071,-5.6115,-5.6148,-5.6154,-5.6117,-5.6112,-5.613,-5.6139,-5.6143,-5.6141,-5.5897,-5.6107,-5.6105,-5.6104,-5.6103,-5.6102,-5.5903,-5.595,-5.5966,-5.6012,-5.6027,-5.605,-5.6092,-5.6089,-5.6129,-5.6169,-5.615,-5.6206,-5.6221,-5.6261,-5.6273,-5.6314,-5.6282,-5.6309,-5.6315,-5.6322,-5.633,-5.6138,-5.632,-5.632,-5.6319,-5.6319,-5.6318,0,-5.6093,-5.6101,-5.6143,-5.6178,-5.6213,-5.6176,-5.62,-5.6231,-5.6281,-5.6299,-5.6332,-5.6387,-5.6428,-5.6425,-5.6463,-5.6497,-5.6481,-5.6508,-5.6504,-5.6506,-5.6357,-5.6337,-5.652,-5.652,-5.652,-5.652,-5.652,-5.652,-5.6196,-5.6273,-5.6265,-5.6348,-5.6354,-5.6409,-5.6426,-5.6446,-5.646,-5.6523,-5.6557,-5.6555,-5.6564,-5.6602,-5.6638,-5.6636,-5.6651,-5.6684,-5.6676,-5.6537,-5.6517,-5.6498,-5.6479,-5.6688,-5.6689,-5.6821,-5.6823,-5.6823]}]]